Lexington Weather

Lexington, Massachusetts, USA

40°F
4/22/2024 7:57am 
  • Lexington Conditions: Clear
  • Temperature: 40.3°F / 4.6°CWarmer 3.1°F than last hour.
  • Dew Point: 28.8°FDecreased 0.3°Fsince last hour.
  • Relative Humidity: 63%Decreased 9.0% since last hour.
  • Wind: Wind from NW NW 4 mph, 10-min avg: Calm, gust: 4 mph
  • Barometer: 29.95 inRising 0.02  inHg/hr Rising Slowly
  • Visibility: 10 miles
  • Rain Today: 0.00 in
  •   

Regional Weather Roundup
for Boston, MA

        
000
ASUS41 KBOX 181310
RWRBOX

REGIONAL WEATHER ROUNDUP
NATIONAL WEATHER SERVICE BOSTON/NORTON MA
900 AM EDT THU APR 18 2024

NOTE:  "FAIR" INDICATES FEW OR NO CLOUDS BELOW 12,000 FEET WITH NO 
SIGNIFICANT WEATHER AND/OR OBSTRUCTIONS TO VISIBILITY.

MAZALL-181400-
EASTERN MASSACHUSETTS
  
CITY           SKY/WX    TMP DP  RH WIND       PRES   REMARKS
BOSTON         CLOUDY    45  38  76 E13       30.18S                  
BEVERLY        CLOUDY    46  34  62 E8        30.18S                  
LAWRENCE       LGT RAIN  46  37  71 E7        30.19F                  
BEDFORD        CLOUDY    46  32  58 E9        30.16S                  
NORWOOD        CLOUDY    48  31  51 E14       30.16S                  
MARSHFIELD     CLOUDY    46  37  71 E10       30.16F                  
PLYMOUTH       CLOUDY    45  35  68 E14       30.14S                  
TAUNTON        CLOUDY    48  32  53 E6        30.14S                  
NEW BEDFORD    CLOUDY    47  34  60 E8        30.13R                  
$$

MAZALL-181400-
CAPE COD AND THE ISLANDS
  
CITY           SKY/WX    TMP DP  RH WIND       PRES   REMARKS
FALMOUTH       CLOUDY    45  32  61 SE12G17   30.14S                  
HYANNIS        LGT RAIN  43  36  76 E8        30.14S                  
CHATHAM        CLOUDY    45  37  73 E12G22    30.15S                  
PROVINCETOWN   CLOUDY    46  35  65 E13G18    30.17F                  
NANTUCKET      CLOUDY    45  37  73 E15G23    30.13S                  
MARTHAS VNYRD  CLOUDY    47  38  71 E15G24    30.12S                  
$$
 
MAZALL-181400-
CENTRAL AND WESTERN MASSACHUSETTS
  
CITY           SKY/WX    TMP DP  RH WIND       PRES   REMARKS
WORCESTER      CLOUDY    44  29  55 E10G18    30.12R                  
FITCHBURG      CLOUDY    46  32  58 VRB6      30.17R                  
ORANGE         CLOUDY    46  32  58 E9        30.14F                  
SPRINGFIELD    LGT RAIN  45  39  79 N8        30.09S                  
WESTFIELD      LGT RAIN  45  40  82 N6        30.13R                  
NORTH ADAMS    LGT RAIN  46  36  68 E15G24    30.09R                  
PITTSFIELD     CLOUDY    42  35  76 VRB7      30.07S                  
$$
 
RIZALL-181400-
RHODE ISLAND
  
CITY           SKY/WX    TMP DP  RH WIND       PRES   REMARKS
PROVIDENCE     CLOUDY    47  34  60 NE15      30.13R                  
NEWPORT        CLOUDY    46  33  60 E12G25    30.11R                  
BLOCK ISLAND   LGT RAIN  42  38  85 E15G29    30.09R                  
SMITHFIELD     CLOUDY    45  33  63 E13G18    30.13S                  
WESTERLY       LGT RAIN  46  37  71 E12G21    30.08S                  
$$
 
CTZALL-181400-
CONNECTICUT
  
CITY           SKY/WX    TMP DP  RH WIND       PRES   REMARKS
BRADLEY INTL   LGT RAIN  47  40  76 N8        30.12R                  
HARTFORD       LGT RAIN  46  41  82 N8        30.11R                  
PLAINVILLE     CLOUDY    44  41  91 N5        30.11R                  
BRIDGEPORT     LGT RAIN  45  43  93 NE15      30.07S FOG              
DANBURY        LGT RAIN  44  41  89 E8        30.08S FOG              
GROTON         CLOUDY    46  38  73 E12G21    30.07R                  
NEW HAVEN      LGT RAIN  46  43  89 NE10      30.07S FOG              
CHESTER        MIX PCPN  43  41  93 E10       30.07S                  
MERIDEN        CLOUDY    45  39  79 VRB5      30.10R                  
WILLIMANTIC    CLOUDY    46  35  65 NE5       30.10S                  
OXFORD         LGT RAIN  41  40  96 NE12G18   30.08R FOG              
$$

MEZ002-015-021-024-NHZ003-005-008-011-012-014-VTZ005-008-181400-
NORTHERN NEW ENGLAND
  
CITY           SKY/WX    TMP DP  RH WIND       PRES   REMARKS
PORTLAND ME    PTSUNNY   45  31  58 E8        30.23S                  
BANGOR ME      MOSUNNY   46  30  53 CALM      30.24S                  
CONCORD NH     CLOUDY    46  34  62 NE10      30.19S                  
MANCHESTER NH  CLOUDY    47  36  65 VRB6      30.17S                  
NASHUA NH      LGT RAIN  45  43  93 E6        30.19R                  
PORTSMOUTH NH  CLOUDY    47  34  60 E10       30.19S                  
JAFFREY NH     CLOUDY    43  34  70 CALM      30.15R                  
KEENE NH       CLOUDY    45  32  60 E6        30.15F                  
BURLINGTON VT  CLOUDY    47  37  68 SE15      30.07R                  
MT. WASHINGTON MOSUNNY   32  21  64 S14         N/A  WCI  22          
$$

NYZ052-076-181400-
EASTERN NEW YORK
  
CITY           SKY/WX    TMP DP  RH WIND       PRES   REMARKS
ALBANY         CLOUDY    47  40  76 S6        30.10R                  
NEW YORK CITY  DRIZZLE   47  43  86 NE18G30   30.05R FOG              
$$
 
ANZALL-181400-
MARINE OBSERVATIONS
  
STATION/POSITION TIME  TEMP    WIND        PRES    VSBY  WAVE
                       AIR SEA DIR/SP/G                  HT/PER
                 (UTC) (F)     (DEG/KT/KT) (MB)    (MI)  (FT/S)
BOSTON BUOY      1250   44      80/ 12/ 14 1021.4F         2/ 3
BUZZARDS BAY     1200   46      80/ 20/ 22 1019.9R
NANTUCKET SOUND  1250   45 47   80/ 19/ 23 1020.1R         3/ 4
MASS BAY-STELLWA 1104   44 44   90/ 12/ 14 1021.7R  1 7/8  1/ 3
ISLE OF SHOALS   1200   44      90/ 15/ 17 1021.7R
S OF BLOCK IS    1256      45                N/A           6/ 5
$$

......................KEY.........................
  SKY/WX - SKY CONDITION/PRESENT WEATHER
  TMP    - TEMPERATURE IN FAHRENHEIT
  DWPT   - DEWPOINT IN FAHRENHEIT
  RH     - RELATIVE HUMIDITY IN PERCENT
  WIND   - DIRECTION AND SPEED IN MPH
  PRES   - MEAN SEA LEVEL PRESSURE IN INCHES OF HG
  WCI    - WIND CHILL INDEX
  VSB    - VISIBILITY IN MILES
  HX     - HEAT INDEX
  TC     - TEMPERATURE IN CELSIUS
  VRB    - VARIABLE WIND DIRECTION
  N/A    - NOT AVAILABLE
  
      

Other recent Regional Weather Roundups

Mon Apr 22, 7:10am EDT

Mon Apr 22, 6:10am EDT

Mon Apr 22, 5:10am EDT

Mon Apr 22, 4:10am EDT

Mon Apr 22, 3:10am EDT

Mon Apr 22, 2:10am EDT

Mon Apr 22, 1:10am EDT

Mon Apr 22, 12:10am EDT

Sun Apr 21, 11:10pm EDT

Sun Apr 21, 10:10pm EDT

Sun Apr 21, 9:10pm EDT

Sun Apr 21, 8:10pm EDT

Sun Apr 21, 7:10pm EDT

Sun Apr 21, 6:10pm EDT

Sun Apr 21, 5:10pm EDT

Sun Apr 21, 4:10pm EDT

Sun Apr 21, 3:10pm EDT

Sun Apr 21, 2:10pm EDT

Sun Apr 21, 1:10pm EDT

Sun Apr 21, 12:10pm EDT

Sun Apr 21, 11:10am EDT

Sun Apr 21, 10:10am EDT

Sun Apr 21, 9:10am EDT

Sun Apr 21, 8:10am EDT

Sun Apr 21, 7:10am EDT

Sun Apr 21, 6:10am EDT

Sun Apr 21, 5:10am EDT

Sun Apr 21, 4:10am EDT

Sun Apr 21, 3:10am EDT

Sun Apr 21, 2:10am EDT

Sun Apr 21, 1:10am EDT

Sun Apr 21, 12:10am EDT

Sat Apr 20, 11:10pm EDT

Sat Apr 20, 10:10pm EDT

Sat Apr 20, 9:10pm EDT

Sat Apr 20, 8:10pm EDT

Sat Apr 20, 7:10pm EDT

Sat Apr 20, 6:10pm EDT

Sat Apr 20, 5:10pm EDT

Sat Apr 20, 4:10pm EDT

Sat Apr 20, 3:10pm EDT

Sat Apr 20, 2:10pm EDT

Sat Apr 20, 1:10pm EDT

Sat Apr 20, 12:10pm EDT

Sat Apr 20, 11:10am EDT

Sat Apr 20, 10:10am EDT

Sat Apr 20, 9:10am EDT

Sat Apr 20, 8:10am EDT

Sat Apr 20, 7:10am EDT

Sat Apr 20, 6:10am EDT

Sat Apr 20, 5:10am EDT

Sat Apr 20, 4:10am EDT

Sat Apr 20, 3:10am EDT

Sat Apr 20, 2:10am EDT

Sat Apr 20, 1:10am EDT

Sat Apr 20, 12:10am EDT

Fri Apr 19, 11:10pm EDT

Fri Apr 19, 10:10pm EDT

Fri Apr 19, 9:10pm EDT

Fri Apr 19, 8:10pm EDT

Fri Apr 19, 7:10pm EDT

Fri Apr 19, 6:10pm EDT

Fri Apr 19, 5:10pm EDT

Fri Apr 19, 4:10pm EDT

Fri Apr 19, 3:10pm EDT

Fri Apr 19, 2:10pm EDT

Fri Apr 19, 1:10pm EDT

Fri Apr 19, 12:10pm EDT

Fri Apr 19, 11:10am EDT

Fri Apr 19, 10:10am EDT

Fri Apr 19, 9:10am EDT

Fri Apr 19, 8:10am EDT

Fri Apr 19, 7:10am EDT

Fri Apr 19, 6:10am EDT

Fri Apr 19, 5:10am EDT

Fri Apr 19, 4:10am EDT

Fri Apr 19, 3:10am EDT

Fri Apr 19, 2:10am EDT

Fri Apr 19, 1:10am EDT

Fri Apr 19, 12:10am EDT

Thu Apr 18, 11:10pm EDT

Thu Apr 18, 10:10pm EDT

Thu Apr 18, 9:10pm EDT

Thu Apr 18, 8:10pm EDT

Thu Apr 18, 7:10pm EDT

Thu Apr 18, 6:10pm EDT

Thu Apr 18, 5:10pm EDT

Thu Apr 18, 4:10pm EDT

Thu Apr 18, 3:10pm EDT

Thu Apr 18, 2:10pm EDT

Thu Apr 18, 1:10pm EDT

Thu Apr 18, 12:10pm EDT

Thu Apr 18, 11:10am EDT

Thu Apr 18, 10:10am EDT

Thu Apr 18, 8:10am EDT

Thu Apr 18, 7:10am EDT

Thu Apr 18, 6:10am EDT

Thu Apr 18, 5:10am EDT

Thu Apr 18, 4:10am EDT

Thu Apr 18, 3:10am EDT

Thu Apr 18, 2:10am EDT

Thu Apr 18, 1:10am EDT

Thu Apr 18, 12:10am EDT

Wed Apr 17, 11:10pm EDT

Wed Apr 17, 10:10pm EDT

Wed Apr 17, 9:10pm EDT

Wed Apr 17, 8:10pm EDT

Wed Apr 17, 7:10pm EDT

Wed Apr 17, 6:10pm EDT

Wed Apr 17, 5:10pm EDT

Wed Apr 17, 4:10pm EDT

Wed Apr 17, 3:10pm EDT

Wed Apr 17, 2:10pm EDT

Wed Apr 17, 1:10pm EDT

Wed Apr 17, 12:10pm EDT

Wed Apr 17, 11:10am EDT

Wed Apr 17, 10:10am EDT

Wed Apr 17, 9:10am EDT

Wed Apr 17, 8:10am EDT

Wed Apr 17, 7:10am EDT

Wed Apr 17, 6:10am EDT

Wed Apr 17, 5:10am EDT

Wed Apr 17, 4:10am EDT

Wed Apr 17, 3:10am EDT

Wed Apr 17, 2:10am EDT

Wed Apr 17, 1:10am EDT

Wed Apr 17, 12:10am EDT

Tue Apr 16, 11:10pm EDT

Tue Apr 16, 10:10pm EDT

Tue Apr 16, 9:10pm EDT

Tue Apr 16, 8:10pm EDT

Tue Apr 16, 7:10pm EDT

Tue Apr 16, 6:10pm EDT

Tue Apr 16, 5:10pm EDT

Tue Apr 16, 4:10pm EDT

Tue Apr 16, 3:10pm EDT

Tue Apr 16, 2:10pm EDT

Tue Apr 16, 1:10pm EDT

Tue Apr 16, 12:10pm EDT

Tue Apr 16, 11:10am EDT

Tue Apr 16, 10:10am EDT

Tue Apr 16, 9:10am EDT

Tue Apr 16, 8:10am EDT

Tue Apr 16, 7:10am EDT

Tue Apr 16, 6:10am EDT

Tue Apr 16, 5:10am EDT

Tue Apr 16, 4:10am EDT

Tue Apr 16, 3:10am EDT

Tue Apr 16, 2:10am EDT

Tue Apr 16, 1:10am EDT

Tue Apr 16, 12:10am EDT

Mon Apr 15, 11:10pm EDT

Mon Apr 15, 10:10pm EDT

Mon Apr 15, 9:10pm EDT

Mon Apr 15, 8:10pm EDT

Mon Apr 15, 7:10pm EDT

Mon Apr 15, 6:10pm EDT

Mon Apr 15, 5:10pm EDT

Mon Apr 15, 4:10pm EDT

Mon Apr 15, 3:10pm EDT

Mon Apr 15, 2:10pm EDT

Mon Apr 15, 1:10pm EDT

Mon Apr 15, 12:10pm EDT

Mon Apr 15, 11:10am EDT

Mon Apr 15, 10:10am EDT

Mon Apr 15, 9:10am EDT

Mon Apr 15, 8:10am EDT